Погода в Киренске

Погода в Киренске : погода сейчас, прогноз погоды и архив. Всё, что Вы хотите узнать о погоде в Киренске!

Хотите узнать прогноз погоды в Киренске? Тогда Вам сюда: Погода в Киренске

Поиск расширенной информации на нашем сайте:

Другие новости

Новости СМИ2

Главная страница сайта

Новости сайта

03.07.2017

Напоминаем, что на нашем специализированном сайте Метеоцентр.Азия вы можете получить высокодетализированные автоматические прогнозы погоды по пунктам России, СНГ и мира в авиационном формате (включающие направление и скорость ветра, видимость, явления погоды, количество и форму облачности, нижнюю и верхнюю границу облачности).


Погода в Киренске - сегодня

Время (UTC), дата Ветер
(°,м/с) 
Видим.   Явления Облачность Т
(°С)
Тd
(°С)
f(%) Тe
(°С)
Pmin
(гПа)
dP
(гПа)
Po
(мм)
O2
(г/м3)
Тmin Tmax R s Состояние
почвы
00 19.11.17 тихо ()   н/о  слаб. снег  10/3 1000 м верхняя 
[Sc|Ci fib]
-26.8 -29.9 75 -27  1031.1  0.6  746  335  -26.8    0.6  равномерный
сухой снег
100% 
03 19.11.17 тихо ()   10 км  слаб. снег  10/6 1000 м средняя 
[Sc|Ac As]
-22.5 -25.6 76 -23  1029.7  -0.6  746  329           
06 19.11.17 тихо ()   4000 м  слаб. снег  10/8 600 м средняя 
[Sc|Ac As]
-19.8 -23.3 74 -20  1028.2  -1.2  745  325           
09 19.11.17 тихо ()   4000 м  слаб. ливневой снег  10/8 600 м кучево-дожд., средняя 
[Cb cap|Ac As]
-18.5 -21.3 79 -19  1025.7  -2.2  743  323           
12 19.11.17 тихо ()   н/о  слаб. ливневой снег  10/8 600 м кучево-дожд., средняя 
[Cb cap|Ac As]
-17.6 -20.3 79 -18  1022.6  -2.9  741  321    -17.6  0.7     
15 19.11.17 тихо ()   н/о  слаб. ливневой снег  10/10 600 м кучево-дожд. 
[Cb cap]
-16.6 -19 82 -17  1018.3  -3.9  738  318           
18 19.11.17 тихо ()   н/о  ливневой снег  10/10 600 м кучево-дожд. 
[Cb cap]
-14.9 -17 84 -15  1014.6  -3.4  735  315           
21 19.11.17 220 (ЮЗ) н/о  ливневой снег  10/10 600 м кучево-дожд. 
[Cb cap]
-6.9 -7.9 93 -8  1012.8  -0.7  735  305           
00 20.11.17 200 (Ю) н/о  ливневой снег  10/10 600 м кучево-дожд. 
[Cb cap]
-4.8 -6.5 88 -8  1012.2  -0.3  735  302  -17.6    15  равномерный
сухой снег
100% 
03 20.11.17 210 (ЮЗ) 2000 м  слаб. ливневой снег  10/6 600 м кучево-дожд., средняя, верхняя 
[Cb cap|Ac trans|Ci fib]
-4.5 -6.3 87 -8  1011.3  -0.8  734  301           
06 20.11.17 230 (ЮЗ) 20000 м  в посл. час ливневой снег  10/5 600 м кучево-дожд., средняя, верхняя 
[Cb cap|Ac trans|Ci fib]
-3.4 -7.5 73 -6  1010.8  -0.4  734  300           
09 20.11.17 240 (ЮЗ) 2{11}  20000 м  {ливн. осадки}  10/6 600 м кучево-дожд., средняя, верхняя 
[Cb cap|Ac trans|Ci fib]
-6.3 -9.9 76 -8  1012.5  1.3  735  304           
12 20.11.17 230 (ЮЗ) н/о  слаб. ливневой снег  10/8 600 м кучево-дожд., средняя, верхняя 
[Cb cap|Ac trans|Ci fib]
-7.7 -11.3 75 -10  1014.8  2.1  736  306    -3  0.8     
15 20.11.17 250 (З) н/о  слаб. ливневой снег  10/8 600 м кучево-дожд., средняя 
[Cb cap|Ac As]
-9.7 -13.2 76 -13  1016.7  1.5  737  309           
18 20.11.17 250 (З) н/о  слаб. ливневой снег  10/10 600 м кучево-дожд. 
[Cb cap]
-10.4 -13.6 77 -12  1017.5  0.8  738  310           
21 20.11.17 230 (ЮЗ) н/о  слаб. ливневой снег  10/6 600 м кучево-дожд., средняя 
[Cb cap|Ac As]
-10.7 -13.5 80 -14  1018  0.3  738  311           
00 21.11.17 330 (СЗ) н/о  слаб. ливневой снег  10/5 600 м кучево-дожд., средняя, верхняя 
[Cb cap|Ac trans|Ci fib]
-13.6 -16.9 76 -16  1020.9  2.6  740  315  -13.6    0.6  16  равномерный
сухой снег
100% 
03 21.11.17 310 (СЗ) 20000 м  слаб. снег{ливн. осадки}  10/0 средняя, верхняя 
[Ac trans|Cs]
-15.1 -20.3 64 -20  1023.6  2.4  742  318  -15.4         
06 21.11.17 300 (СЗ) 20000 м  слаб. снег{ливн. осадки}  10/0 средняя, верхняя 
[Ac trans|Cs]
-15.7 -21.9 59 -19  1026.1  2.3  744  320           
09 21.11.17 280 (З) 20000 м  {снег}  8/0 средняя, верхняя 
[Ac trans|Ci fib]
-19.4 -23.6 69 -22  1029.5  2.8  746  325           
12 21.11.17 210 (ЮЗ) н/о  {снег}  10/0 средняя, верхняя 
[Ac trans|Ci fib]
-22.9 -25.2 81 -23  1031.9  1.9  747  330    -13.6  0.0     
15 21.11.17 260 (З) н/о    8/0 верхняя 
[Ci fib]
-27.2 -29.7 79 -31  1033.7  748  337           
18 21.11.17 тихо ()   н/о    3/0 верхняя 
[Ci fib]
-31 -34.4 72 -31  1035.1  0.9  749  342           
21 21.11.17 тихо ()   н/о    ясно 
-33.8 -37.7 68 -34  1035.6  -0.1  749  346           
00 22.11.17 тихо ()   н/о    ясно 
-35.4 -39.4 67 -35  1036.1  0.3  749  349  -35.5      16  равномерный
сухой снег
100% 
Время (UTC), дата Ветер
(°,м/с) 
Видим.   Явления Облачность Т
(°С)
Тd
(°С)
f(%) Тe
(°С)
Pmin
(гПа)
dP
(гПа)
Po
(мм)
O2
(г/м3)
Тmin Tmax R s Состояние
почвы

Для получения пояснительной информации подведите курсор к названию столбца.

ПОГОДА в Киренске - архив

Всё, что Вы хотите узнать о погоде в Киренске - удобно и подробно!

Выберите нужную дату (начиная с 1 января 2015* года) и нажмите кнопку "Найти".
Будут отображены архивные сводки погоды по пункту Киренск, начиная с указанной даты.


Отображать данные в формате CSV (для использования в таблицах Excel)


Внимание! Наш архив погоды предназначен исключительно для личного некоммерческого использования в познавательных целях. Если Вам необходимы официальные справки о состоянии погоды (для производственных, юридических, коммерческих и т.п. целей), обращайтесь в органы Росгидромета.

*Примечание: данная дата относится к архиву по метеостанциям СССР (Россия, СНГ, Балтия).
Архив по метеостанциям Зарубежной Европы и Азии (кроме Китая) хранится 10 дней, по другим регионам земного шара (Китай, Африка, Америка, Австралия, Океания) - 1 день.

Киренск - район местоположения метеостанции


Название, широта, долгота, высота метеостанции:
Киренск 57.8°ш. 108.1°д. 259 м над ур. моря [Российская Федерация]

Дополнительная информация

В oтличие oт бoльшинства пoгoдных сайтoв мы публикуем пoдрoбную метеoинфoрмацию в детальнoм прoфессиoнальнoм фoрмате.

Характеристики температуры и влажнoсти вoздуха измеряются на высoте 2 м в тени вдали oт зданий и деревьев.
Скoрoсть ветра измеряется на высoте 10 м (на урoвне рoста челoвека скoрoсть ветра ниже в 1.5-2 раза). Если метеoстанция нахoдится в гoрoде или в лесу, тo скoрoсть ветра занижена на 2-4 м/с пo сравнению с oткрытым местoм. Скoрoсть ветра над акватoриями крупных рек и oзёр, а также на вершинах хoлмoв на 2-5 м/с выше, чем в oбычных услoвиях.
Атмoсфернoе давление в разных тoчках местнoсти мoжет значительнo oтличаться oт давления на метеoстанции, в зависимoсти oт услoвий рельефа (при пoдъёме на 10 м давление пoнижается примернo на 1 мм рт.ст.).